Showing default

COSMOS 2489, 39484

Orbit data source: Space-Track

COSMOS 2489, 39484 is a payload satellite owned by VVKO (CIS) in LEO that was launched on Wed, 25 Dec 2013 UTC via an ROKOT launch vehicle from the Plesetsk Missile And Space Complex (PKMTR). Payload-class satellites include a variety of spacecraft equipped with specific instruments for various scientific and technological missions. These include communications satellites like Starlink; space stations such as the ISS; scientific satellites like the Hubble; Earth observation satellites from companies like Planet Labs, Umbra, and HawkEye 360; GPS; miniature CubeSats for education and research; and military/defense satellites.

Loading next visibility...
Identifier
39484, 2013-076B
Orbit
LEO
Country
Flag of CISCIS
Related business
Manufacturer
Resehetnev ISS
Mission
Operational Civil Communications
Bus & Motor
STRELA-3M, Unknown motor
Mass
280 kg wet, 280 kg dry
Launch date (UTC)
2013-12-25 (13 years ago)
Launch vehicle
ROKOT
Launch site
Plesetsk Missile And Space Complex (PKMTR)
Object type
Payload
Rocket body
Debris
Shape & HBR
Cyl + 1 Ant, 3.5 m
Radar Cross Section
1.583 m², Large (>1 m²)

Expand to show TLE details & history
Last TLE update: 14 hours ago

TLE from 14 hours ago
0 COSMOS 2489
1 39484U 13076B   26209.22769927  .00000021  00000-0  79441-4 0  9990
2 39484  82.4899 144.5214 0021973   9.7564 350.3938 12.42880558571045
Epoch: 2026-07-28T05:27Z
TLE epoch observation values (Epoch: 2026-07-28T05:27:53.216Z)
Latitude
-0.00004°
Longitude
116.64972°
Altitude
1,480.058 km
Speed
7.131 km/s
True Right ascension
09h 38m 05s
True Declination
0° 00' 00"
Sunlit
Object was in daylight at epoch
Visualization orbit readout
Latitude
Unknown
Longitude
Unknown
Altitude
Unknown
Speed
Unknown
Apparent Right ascension
Unknown
Apparent Declination
Unknown
Sunlit
N/A
Visualization observer readout
Local Sidereal Time
08:45:38
Azimuth
Unknown
Elevation
Unknown
Doppler factor
Unknown
Orbital elements
Apogee altitude
1,509.06 km
Perigee altitude
1,474.475 km
Semi-major axis
7,869.904 km
Eccentricity
0.0022
Inclination
82.4899°
RAAN
144.5214°
Arg. of periapsis
9.7564°
True anomaly
350.35167°
Mean anomaly
350.3938°
Eccentric anomaly
350.37275°
Mean motion
3.10877 °/min
Orbital period
115.8 mins
BSTAR
0.000079441
Loading maneuver chart data...
Computing Atmospheric mass density...
Loading historical data...
Loading historical data...
Loading historical data...
Loading historical data...
Loading historical data...
Loading historical data...
Loading historical data...

Documentation

Showing up to 5 results
|